FW9521 Weather Reports


Display with metric or nautical units.
time (UTC)temp
F
wind
direction
speed
MPH
gust
MPH
rain 1hr
in
rain 24hr
in
rain mn
in
humidity
%
barometer
mb
20260906180045 89 202 3.0 6.0 0.00 0.14 0.03 63 1014.6
20260906175544 89 198 5.0 9.0 0.00 0.14 0.03 62 1014.7
20260906175044 88 208 6.0 9.0 0.00 0.14 0.03 62 1014.7
20260906174045 88 188 5.0 6.0 0.00 0.14 0.03 65 1014.9
20260906173544 88 204 5.0 8.0 0.00 0.14 0.03 65 1014.9
20260906172044 87 217 4.0 9.0 0.00 0.14 0.03 69 1015.1
20260906171545 87 178 5.0 8.0 0.00 0.14 0.03 69 1015.2
20260906171044 86 196 5.0 9.0 0.00 0.14 0.03 71 1015.2
20260906170546 86 192 4.0 7.0 0.00 0.14 0.03 73 1015.3
20260906170045 86 158 4.0 8.0 0.00 0.15 0.03 73 1015.2
20260906165545 86 169 4.0 8.0 0.00 0.15 0.03 74 1015.3
20260906165044 86 220 3.0 6.0 0.00 0.15 0.03 75 1015.4
20260906164545 86 173 5.0 7.0 0.00 0.15 0.03 75 1015.5
20260906164045 85 176 3.0 6.0 0.00 0.15 0.03 74 1015.8
20260906163545 85 157 0.0 6.0 0.00 0.15 0.03 75 1015.9
20260906163044 84 204 3.0 7.0 0.00 0.15 0.03 76 1016.0
20260906162545 84 175 3.0 7.0 0.00 0.15 0.03 77 1016.0
20260906162045 84 175 0.0 5.0 0.00 0.15 0.03 78 1016.1
20260906161545 84 131 2.0 6.0 0.00 0.15 0.03 78 1016.0
20260906161044 84 185 3.0 6.0 0.00 0.15 0.03 77 1016.0
20260906160545 84 217 1.0 6.0 0.00 0.15 0.03 78 1016.4
20260906155545 84 170 2.0 8.0 0.00 0.15 0.03 78 1016.5
20260906155044 83 268 4.0 7.0 0.00 0.15 0.03 78 1016.6
20260906154545 84 194 3.0 7.0 0.00 0.15 0.03 77 1016.0
20260906154045 83 172 3.0 7.0 0.00 0.15 0.03 77 1015.9
20260906153545 83 161 5.0 8.0 0.00 0.15 0.03 76 1015.8
20260906153044 83 187 4.0 7.0 0.00 0.15 0.03 77 1015.8
20260906152545 84 173 5.0 8.0 0.00 0.15 0.03 78 1015.7
20260906152045 84 169 5.0 8.0 0.00 0.15 0.03 78 1015.7
20260906151545 83 167 5.0 8.0 0.00 0.15 0.03 78 1015.7
20260906151045 83 193 5.0 8.0 0.00 0.15 0.03 78 1015.7
20260906150545 83 169 5.0 10.0 0.00 0.15 0.03 79 1015.7
20260906150045 83 184 5.0 7.0 0.00 0.15 0.03 82 1015.7
20260906145545 83 173 3.0 7.0 0.00 0.15 0.03 82 1015.6
20260906145045 83 158 4.0 8.0 0.01 0.15 0.03 84 1015.5
20260906144044 82 156 4.0 7.0 0.03 0.15 0.03 85 1015.6
20260906143545 82 158 5.0 7.0 0.03 0.15 0.03 86 1015.7
20260906143044 81 164 5.0 9.0 0.03 0.15 0.03 86 1015.7
20260906142545 81 152 4.0 9.0 0.03 0.15 0.03 88 1015.8
20260906142045 81 153 6.0 9.0 0.03 0.15 0.03 90 1015.8
20260906141545 81 153 3.0 9.0 0.03 0.15 0.03 92 1015.9
20260906141045 81 143 5.0 10.0 0.03 0.15 0.03 94 1015.8
20260906140545 80 149 5.0 6.0 0.03 0.15 0.03 95 1015.9
20260906140045 80 154 4.0 8.0 0.03 0.15 0.03 95 1015.9
20260906135545 80 160 3.0 8.0 0.03 0.15 0.03 95 1016.0
20260906135046 80 136 5.0 9.0 0.02 0.14 0.02 95 1016.0
20260906134545 80 127 5.0 10.0 0.01 0.13 0.01 94 1015.9
20260906134045 80 157 5.0 10.0 0.00 0.12 0.00 93 1015.9
20260906133545 80 148 5.0 10.0 0.00 0.12 0.00 94 1016.0
20260906132544 80 166 3.0 6.0 0.00 0.12 0.00 96 1016.0
20260906132045 79 152 3.0 7.0 0.00 0.12 0.00 96 1015.9
20260906131045 78 124 2.0 7.0 0.00 0.12 0.00 98 1015.9
20260906130548 78 128 2.0 5.0 0.00 0.12 0.00 98 1015.9
20260906130044 78 126 3.0 5.0 0.00 0.12 0.00 98 1015.8
20260906125545 78 114 3.0 6.0 0.00 0.12 0.00 98 1015.8
20260906125045 78 132 3.0 7.0 0.00 0.12 0.00 98 1015.6
20260906124545 77 143 3.0 7.0 0.00 0.12 0.00 99 1015.5
20260906124045 78 132 3.0 7.0 0.00 0.12 0.00 99 1015.5
20260906123545 77 123 3.0 7.0 0.00 0.12 0.00 99 1015.4
20260906123046 77 131 4.0 7.0 0.00 0.12 0.00 99 1015.4
20260906122545 77 131 4.0 7.0 0.00 0.12 0.00 100 1015.4
20260906122045 77 131 3.0 6.0 0.00 0.12 0.00 100 1015.3
20260906121545 77 131 3.0 6.0 0.00 0.12 0.00 100 1015.2
20260906121045 77 132 3.0 7.0 0.00 0.12 0.00 100 1015.2
20260906120544 77 132 3.0 6.0 0.00 0.12 0.00 100 1015.2
20260906120045 77 140 3.0 6.0 0.00 0.12 0.00 100 1015.1
20260906115545 77 127 3.0 5.0 0.00 0.12 0.00 100 1014.9
20260906115045 77 104 3.0 5.0 0.00 0.12 0.00 99 1014.9
20260906114545 76 119 2.0 6.0 0.00 0.12 0.00 99 1014.8
20260906114045 77 130 2.0 6.0 0.00 0.12 0.00 99 1014.8
20260906113545 77 133 3.0 6.0 0.00 0.12 0.00 99 1014.8
20260906113045 77 118 2.0 5.0 0.00 0.12 0.00 99 1014.8
20260906112545 77 120 3.0 6.0 0.00 0.12 0.00 99 1014.8
20260906111545 77 118 2.0 5.0 0.00 0.12 0.00 98 1014.9
20260906111046 77 119 2.0 6.0 0.00 0.12 0.00 98 1014.9
20260906110545 77 132 2.0 5.0 0.00 0.12 0.00 98 1014.9
20260906105545 77 126 2.0 5.0 0.00 0.12 0.00 98 1014.9
20260906104546 77 135 3.0 5.0 0.00 0.12 0.00 97 1014.7
20260906104045 77 137 3.0 6.0 0.00 0.12 0.00 97 1014.7
20260906103545 77 149 3.0 5.0 0.00 0.12 0.00 97 1014.6
20260906103045 77 124 3.0 6.0 0.00 0.12 0.00 97 1014.5
20260906102545 77 129 3.0 5.0 0.00 0.12 0.00 97 1014.6
20260906102045 77 128 2.0 6.0 0.00 0.12 0.00 96 1014.5
20260906101546 77 141 3.0 5.0 0.00 0.12 0.00 96 1014.5
20260906101045 77 130 3.0 6.0 0.00 0.12 0.00 96 1014.4
20260906100545 77 127 2.0 6.0 0.00 0.12 0.00 96 1014.5
20260906100045 77 125 2.0 5.0 0.00 0.12 0.00 96 1014.5
20260906095546 77 91 2.0 5.0 0.00 0.12 0.00 95 1014.5
20260906095045 77 99 2.0 5.0 0.00 0.12 0.00 95 1014.4
20260906094545 77 88 2.0 3.0 0.00 0.12 0.00 94 1014.4
20260906094046 77 85 2.0 5.0 0.00 0.12 0.00 94 1014.4
20260906093545 77 58 1.0 3.0 0.00 0.12 0.00 93 1014.4
20260906093045 78 124 2.0 3.0 0.00 0.12 0.00 93 1014.4
20260906092545 77 110 2.0 3.0 0.00 0.12 0.00 92 1014.4
20260906091545 78 109 0.0 0.0 0.00 0.12 0.00 92 1014.4
20260906091045 78 109 0.0 1.0 0.00 0.12 0.00 92 1014.5
20260906090545 78 88 0.0 0.0 0.00 0.12 0.00 91 1014.4
20260906090045 78 88 0.0 1.0 0.00 0.12 0.00 91 1014.4
20260906085545 78 95 1.0 3.0 0.00 0.12 0.00 91 1014.4
20260906085045 78 59 0.0 2.0 0.00 0.12 0.00 91 1014.4
20260906084545 78 107 1.0 3.0 0.00 0.12 0.00 91 1014.4
20260906084045 78 124 1.0 3.0 0.00 0.12 0.00 91 1014.4
20260906083545 78 117 1.0 3.0 0.00 0.12 0.00 90 1014.3
20260906083045 78 103 1.0 2.0 0.00 0.12 0.00 90 1014.3
20260906082545 78 62 0.0 2.0 0.00 0.12 0.00 89 1014.2
20260906081546 79 120 2.0 3.0 0.00 0.12 0.00 89 1014.2
20260906081046 79 138 2.0 3.0 0.00 0.12 0.00 88 1014.2
20260906080546 79 142 2.0 5.0 0.00 0.12 0.00 88 1014.2
20260906080045 79 146 3.0 6.0 0.00 0.12 0.00 87 1014.1
20260906075545 79 148 3.0 6.0 0.00 0.12 0.00 87 1014.2
20260906075045 79 152 3.0 6.0 0.00 0.12 0.00 87 1014.2
20260906074545 79 153 3.0 7.0 0.00 0.12 0.00 87 1014.3
20260906074045 79 147 3.0 7.0 0.00 0.12 0.00 87 1014.2
20260906073545 79 135 4.0 8.0 0.00 0.12 0.00 87 1014.2
20260906073045 79 143 3.0 6.0 0.00 0.12 0.00 87 1014.3
20260906072545 79 143 3.0 6.0 0.00 0.12 0.00 87 1014.3
20260906072046 79 123 3.0 6.0 0.00 0.12 0.00 87 1014.3
20260906071545 79 134 3.0 6.0 0.00 0.12 0.00 87 1014.4
20260906071046 79 150 3.0 6.0 0.00 0.12 0.00 87 1014.4
20260906070545 79 144 3.0 6.0 0.00 0.12 0.00 87 1014.5
20260906070045 79 136 3.0 5.0 0.00 0.12 0.00 87 1014.5
20260906065045 79 135 2.0 5.0 0.00 0.12 0.00 87 1014.5
20260906064546 79 146 3.0 3.0 0.00 0.12 0.00 86 1014.5
20260906064045 80 145 3.0 5.0 0.00 0.12 0.00 86 1014.5
20260906063546 80 156 2.0 5.0 0.00 0.12 0.00 86 1014.6
20260906062545 80 128 1.0 3.0 0.00 0.12 0.00 85 1014.6
20260906062045 80 134 2.0 3.0 0.00 0.12 0.00 85 1014.5
20260906061545 80 133 2.0 5.0 0.00 0.12 0.00 84 1014.5
20260906061045 80 144 2.0 5.0 0.00 0.12 0.00 84 1014.5
20260906060546 80 147 2.0 5.0 0.00 0.12 0.00 83 1014.5
20260906060045 81 147 3.0 5.0 0.00 0.12 0.00 82 1014.6
20260906055546 81 146 2.0 5.0 0.00 0.12 0.00 82 1014.6
20260906055045 81 144 3.0 6.0 0.00 0.12 0.00 82 1014.7
20260906054545 81 130 3.0 6.0 0.00 0.12 0.00 81 1014.7
20260906053045 81 119 2.0 5.0 0.00 0.12 0.00 81 1014.7
20260906052545 81 118 2.0 5.0 0.00 0.12 0.00 81 1014.8
20260906051045 81 135 1.0 2.0 0.00 0.12 0.00 80 1014.7
20260906050545 81 62 1.0 3.0 0.00 0.12 0.00 79 1014.7
20260906045545 82 89 0.0 0.0 0.00 0.12 0.12 78 1014.7
20260906045045 82 89 1.0 3.0 0.00 0.12 0.12 77 1014.6
20260906044546 83 98 2.0 3.0 0.00 0.12 0.12 76 1014.6
20260906044046 83 107 2.0 5.0 0.00 0.12 0.12 76 1014.7
20260906043545 83 104 2.0 5.0 0.00 0.12 0.12 76 1014.6
20260906043045 83 96 2.0 3.0 0.00 0.12 0.12 76 1014.6
20260906042046 83 97 2.0 5.0 0.00 0.12 0.12 76 1014.7
20260906041545 83 92 2.0 5.0 0.00 0.12 0.12 76 1014.6
20260906041045 83 108 2.0 5.0 0.00 0.12 0.12 76 1014.6
20260906040046 83 95 1.0 5.0 0.00 0.12 0.12 76 1014.6
20260906035045 83 97 2.0 6.0 0.00 0.12 0.12 76 1014.6
20260906034545 84 96 2.0 7.0 0.00 0.12 0.12 75 1014.5
20260906033546 83 84 2.0 3.0 0.00 0.12 0.12 76 1014.4
20260906033046 84 82 3.0 5.0 0.00 0.12 0.12 77 1014.4
20260906032545 83 93 2.0 3.0 0.00 0.12 0.12 77 1014.4
20260906032046 84 87 2.0 5.0 0.00 0.12 0.12 77 1014.2
20260906031045 84 86 2.0 5.0 0.00 0.12 0.12 78 1014.1
20260906030545 84 101 2.0 5.0 0.00 0.12 0.12 78 1013.9
20260906030045 84 75 1.0 5.0 0.00 0.12 0.12 77 1013.7
20260906025545 84 93 2.0 5.0 0.00 0.12 0.12 77 1013.6
20260906025046 84 90 2.0 5.0 0.00 0.12 0.12 77 1013.7
20260906024545 84 79 3.0 5.0 0.00 0.12 0.12 77 1013.5
20260906024046 84 91 3.0 3.0 0.00 0.12 0.12 77 1013.5
20260906023046 84 77 2.0 5.0 0.00 0.12 0.12 77 1013.5
20260906022545 84 93 2.0 5.0 0.00 0.12 0.12 77 1013.4
20260906022046 85 88 2.0 3.0 0.00 0.12 0.12 77 1013.2
20260906021546 85 47 0.0 3.0 0.00 0.12 0.12 76 1013.2
20260906021045 85 74 2.0 5.0 0.00 0.12 0.12 76 1013.1
20260906020545 85 72 1.0 3.0 0.00 0.12 0.12 75 1013.0
20260906020046 85 76 2.0 3.0 0.00 0.12 0.12 75 1012.8
20260906015546 86 76 2.0 3.0 0.00 0.12 0.12 74 1012.6
20260906015046 86 81 2.0 3.0 0.00 0.12 0.12 74 1012.7
20260906014545 86 63 1.0 3.0 0.00 0.12 0.12 73 1012.7
20260906014045 86 67 1.0 2.0 0.00 0.12 0.12 72 1012.6
20260906013545 86 44 0.0 3.0 0.00 0.12 0.12 71 1012.5
20260906013045 87 72 2.0 3.0 0.00 0.12 0.12 70 1012.4
20260906012546 87 62 0.0 2.0 0.00 0.12 0.12 68 1012.3
20260906012045 87 80 0.0 3.0 0.00 0.12 0.12 68 1012.3
20260906011545 87 92 1.0 3.0 0.00 0.12 0.12 67 1012.1
20260906011046 88 77 1.0 3.0 0.00 0.12 0.12 66 1012.1
20260906010045 88 66 2.0 5.0 0.00 0.12 0.12 66 1012.0
20260906005545 88 51 0.0 5.0 0.00 0.12 0.12 66 1011.9
20260906005045 88 116 1.0 5.0 0.00 0.12 0.12 65 1011.8
20260906004046 89 101 1.0 2.0 0.00 0.12 0.12 64 1012.0
20260906003545 89 102 0.0 3.0 0.00 0.12 0.12 64 1012.0
20260906002545 90 82 1.0 2.0 0.00 0.12 0.12 63 1012.0
20260906002045 90 68 0.0 2.0 0.00 0.12 0.12 63 1012.0
20260906001546 91 41 1.0 3.0 0.00 0.12 0.12 62 1012.1
20260906001045 91 64 0.0 0.0 0.00 0.12 0.12 62 1012.0
20260906000546 91 64 0.0 0.0 0.00 0.12 0.12 60 1012.0
20260906000046 91 64 1.0 5.0 0.00 0.12 0.12 60 1012.0
20260905235546 92 150 3.0 6.0 0.01 0.12 0.12 59 1011.9
20260905235045 92 116 2.0 7.0 0.03 0.12 0.12 59 1012.0
20260905234545 92 141 3.0 7.0 0.04 0.12 0.12 59 1012.0
20260905234046 92 132 3.0 6.0 0.04 0.12 0.12 58 1012.0
20260905233546 92 151 4.0 8.0 0.04 0.12 0.12 58 1012.0
20260905233045 92 141 4.0 8.0 0.04 0.12 0.12 58 1011.9
20260905232046 92 146 4.0 8.0 0.04 0.12 0.12 58 1012.0
20260905231546 92 131 4.0 7.0 0.04 0.12 0.12 58 1012.0
20260905231046 91 157 3.0 9.0 0.04 0.12 0.12 59 1012.0
20260905230546 91 137 4.0 8.0 0.04 0.12 0.12 59 1012.0
20260905225546 93 155 3.0 8.0 0.04 0.11 0.11 58 1012.0
20260905224546 93 164 6.0 12.0 0.02 0.08 0.08 55 1011.9
20260905224046 93 142 6.0 13.0 0.03 0.08 0.08 54 1011.8
20260905223546 93 146 5.0 10.0 0.03 0.08 0.08 56 1011.8
20260905223046 93 131 4.0 8.0 0.03 0.08 0.08 56 1011.8
20260905222546 93 159 6.0 10.0 0.03 0.08 0.08 55 1011.8
20260905222045 93 162 4.0 10.0 0.03 0.08 0.08 54 1011.8
20260905221545 93 158 6.0 9.0 0.03 0.08 0.08 57 1011.8
20260905221047 92 158 3.0 8.0 0.03 0.08 0.08 57 1011.9
20260905220546 92 103 3.0 9.0 0.03 0.08 0.08 59 1011.9
20260905220045 92 153 3.0 8.0 0.03 0.08 0.08 59 1012.0
20260905215546 92 151 5.0 8.0 0.02 0.07 0.07 58 1012.0
20260905215045 93 79 2.0 9.0 0.01 0.06 0.06 57 1011.9
20260905214046 93 98 3.0 6.0 0.00 0.05 0.05 56 1012.1
20260905213546 93 118 5.0 10.0 0.00 0.05 0.05 54 1012.2
20260905213046 93 90 4.0 10.0 0.00 0.05 0.05 54 1012.3
20260905212545 93 116 5.0 9.0 0.00 0.05 0.05 55 1012.3
20260905212045 93 93 5.0 9.0 0.00 0.05 0.05 55 1012.4
20260905211546 93 127 3.0 7.0 0.00 0.05 0.05 57 1012.4
20260905211047 93 135 6.0 9.0 0.03 0.05 0.05 54 1012.5
20260905210545 93 116 3.0 9.0 0.04 0.05 0.05 55 1012.6
20260905210046 92 118 5.0 8.0 0.04 0.05 0.05 56 1012.7
20260905205546 92 90 3.0 8.0 0.04 0.05 0.05 56 1012.8
20260905205046 92 92 4.0 7.0 0.04 0.05 0.05 54 1012.9
20260905203546 91 131 5.0 9.0 0.04 0.05 0.05 56 1013.1
20260905203046 91 66 4.0 9.0 0.04 0.05 0.05 56 1013.3
20260905202545 90 94 5.0 12.0 0.04 0.05 0.05 57 1013.4
20260905202046 90 84 5.0 9.0 0.04 0.05 0.05 58 1013.5
20260905201046 91 8 4.0 9.0 0.01 0.02 0.02 55 1013.6
20260905200045 92 80 5.0 10.0 0.00 0.01 0.01 54 1013.6
20260905195546 92 96 5.0 10.0 0.00 0.01 0.01 54 1013.7
20260905195045 92 60 3.0 12.0 0.00 0.01 0.01 56 1013.7
20260905194546 91 63 2.0 8.0 0.00 0.01 0.01 55 1013.7
20260905193546 91 66 6.0 13.0 0.00 0.01 0.01 55 1013.9
20260905193046 91 59 7.0 13.0 0.00 0.01 0.01 55 1014.0
20260905192046 91 91 6.0 10.0 0.00 0.01 0.01 58 1014.3
20260905191546 91 101 5.0 12.0 0.00 0.01 0.01 57 1014.3
20260905191046 91 88 7.0 14.0 0.00 0.01 0.01 56 1014.4
20260905190546 91 67 5.0 9.0 0.00 0.01 0.01 58 1014.6
20260905190047 91 59 7.0 13.0 0.00 0.01 0.01 57 1014.7
20260905185046 91 3 6.0 13.0 0.00 0.01 0.01 58 1014.8
20260905184546 92 76 5.0 12.0 0.00 0.01 0.01 59 1014.9
20260905184046 92 73 7.0 12.0 0.00 0.01 0.01 57 1014.9
20260905183546 92 8 3.0 12.0 0.00 0.01 0.01 59 1015.0
20260905183046 92 69 7.0 13.0 0.00 0.01 0.01 58 1014.9
20260905182546 92 42 4.0 10.0 0.00 0.01 0.01 57 1015.0
20260905182046 93 39 6.0 10.0 0.00 0.01 0.01 55 1014.9
20260905181046 93 68 6.0 12.0 0.00 0.01 0.01 55 1014.8
20260905180546 94 31 5.0 9.0 0.00 0.01 0.01 52 1014.7